Time,TemperatureF,DewpointF,PressureIn,WindDirection,WindDirectionDegrees,WindSpeedMPH,WindSpeedGustMPH,Humidity,HourlyPrecipIn,Conditions,Clouds,dailyrainin,SoftwareType,DateUTC
2013-05-20 00:03:00,60.1,59.8,29.49,SSW,202,2.7,-999.0,99,-99.99,,,0.00,Acu-Link.com,2013-05-20 05:03:00,
2013-05-20 00:18:00,59.9,59.6,29.51,South,180,5.3,-999.0,99,-99.99,,,0.00,Acu-Link.com,2013-05-20 05:18:00,
2013-05-20 00:34:00,59.5,59.2,29.52,SSE,157,9.4,-999.0,99,-99.99,,,0.00,Acu-Link.com,2013-05-20 05:34:00,
2013-05-20 00:49:00,59.2,58.9,29.54,SSW,202,4.2,-999.0,99,-99.99,,,0.00,Acu-Link.com,2013-05-20 05:49:00,
2013-05-20 01:04:00,58.5,58.2,29.51,SSE,157,3.7,-999.0,99,-99.99,,,0.00,Acu-Link.com,2013-05-20 06:04:00,
2013-05-20 01:19:00,58.5,58.2,29.51,SSE,157,4.2,-999.0,99,-99.99,,,0.00,Acu-Link.com,2013-05-20 06:19:00,
2013-05-20 01:35:00,58.3,58.0,29.51,South,180,3.7,-999.0,99,-99.99,,,0.00,Acu-Link.com,2013-05-20 06:35:00,
2013-05-20 01:50:00,58.1,57.8,29.51,SSE,157,5.8,-999.0,99,-99.99,,,0.00,Acu-Link.com,2013-05-20 06:50:00,
2013-05-20 02:05:00,58.5,58.2,29.50,South,180,4.7,-999.0,99,-99.99,,,0.00,Acu-Link.com,2013-05-20 07:05:00,
2013-05-20 02:20:00,58.3,58.0,29.49,SSW,202,3.7,-999.0,99,-99.99,,,0.00,Acu-Link.com,2013-05-20 07:20:00,
2013-05-20 02:35:00,58.3,58.0,29.49,South,180,5.8,-999.0,99,-99.99,,,0.00,Acu-Link.com,2013-05-20 07:35:00,
2013-05-20 02:51:00,58.3,58.0,29.49,ESE,112,6.8,-999.0,99,-99.99,,,0.00,Acu-Link.com,2013-05-20 07:51:00,
2013-05-20 03:06:00,58.1,57.5,29.49,South,180,3.7,-999.0,98,-99.99,,,0.00,Acu-Link.com,2013-05-20 08:06:00,
2013-05-20 03:21:00,57.9,57.3,29.50,South,180,5.8,-999.0,98,-99.99,,,0.00,Acu-Link.com,2013-05-20 08:21:00,
2013-05-20 03:37:00,57.7,56.9,29.50,SSW,202,7.8,-999.0,97,-99.99,,,0.00,Acu-Link.com,2013-05-20 08:37:00,
2013-05-20 03:52:00,57.2,56.1,29.50,SSW,202,5.8,-999.0,96,-99.99,,,0.00,Acu-Link.com,2013-05-20 08:52:00,
2013-05-20 04:07:00,56.8,55.7,29.50,SSW,202,4.2,-999.0,96,-99.99,,,0.00,Acu-Link.com,2013-05-20 09:07:00,
2013-05-20 04:22:00,56.5,55.4,29.50,SSW,202,5.3,-999.0,96,-99.99,,,0.00,Acu-Link.com,2013-05-20 09:22:00,
2013-05-20 04:37:00,56.1,55.0,29.52,South,180,3.2,-999.0,96,-99.99,,,0.00,Acu-Link.com,2013-05-20 09:37:00,
2013-05-20 04:53:00,56.1,54.7,29.53,SSW,202,6.8,-999.0,95,-99.99,,,0.00,Acu-Link.com,2013-05-20 09:53:00,
2013-05-20 05:08:00,55.9,54.8,29.53,South,180,4.7,-999.0,96,-99.99,,,0.00,Acu-Link.com,2013-05-20 10:08:00,
2013-05-20 05:23:00,56.1,54.7,29.53,South,180,5.3,-999.0,95,-99.99,,,0.00,Acu-Link.com,2013-05-20 10:23:00,
2013-05-20 05:38:00,55.8,54.7,29.53,SSE,157,5.3,-999.0,96,-99.99,,,0.00,Acu-Link.com,2013-05-20 10:38:00,
2013-05-20 05:54:00,55.9,54.5,29.54,SSE,157,6.3,-999.0,95,-99.99,,,0.00,Acu-Link.com,2013-05-20 10:54:00,
2013-05-20 06:09:00,56.1,54.4,29.55,SW,225,5.8,-999.0,94,-99.99,,,0.00,Acu-Link.com,2013-05-20 11:09:00,
2013-05-20 06:24:00,55.9,54.5,29.55,SSW,202,2.7,-999.0,95,-99.99,,,0.00,Acu-Link.com,2013-05-20 11:24:00,
2013-05-20 06:39:00,57.4,55.1,29.56,SSW,202,3.7,-999.0,92,-99.99,,,0.00,Acu-Link.com,2013-05-20 11:39:00,
2013-05-20 06:54:00,58.6,55.4,29.56,SW,225,4.2,-999.0,89,-99.99,,,0.00,Acu-Link.com,2013-05-20 11:54:00,
2013-05-20 07:10:00,59.5,55.6,29.57,SW,225,5.3,-999.0,87,-99.99,,,0.00,Acu-Link.com,2013-05-20 12:10:00,
2013-05-20 07:25:00,61.5,56.6,29.58,SE,135,6.3,-999.0,84,-99.99,,,0.00,Acu-Link.com,2013-05-20 12:25:00,
2013-05-20 07:40:00,60.3,56.1,29.59,WSW,247,6.8,-999.0,86,-99.99,,,0.00,Acu-Link.com,2013-05-20 12:40:00,
2013-05-20 07:56:00,60.6,57.0,29.59,WSW,247,3.7,-999.0,88,-99.99,,,0.00,Acu-Link.com,2013-05-20 12:56:00,
2013-05-20 08:11:00,63.7,57.8,29.59,SW,225,8.3,-999.0,81,-99.99,,,0.00,Acu-Link.com,2013-05-20 13:11:00,
2013-05-20 08:26:00,65.3,58.3,29.60,ESE,112,4.7,-999.0,78,-99.99,,,0.00,Acu-Link.com,2013-05-20 13:26:00,
2013-05-20 08:41:00,67.1,58.5,29.60,SW,225,8.3,-999.0,74,-99.99,,,0.00,Acu-Link.com,2013-05-20 13:41:00,
2013-05-20 08:56:00,68.2,59.2,29.61,WSW,247,6.3,-999.0,73,-99.99,,,0.00,Acu-Link.com,2013-05-20 13:56:00,
2013-05-20 09:12:00,69.6,59.8,29.61,SSW,202,2.7,-999.0,71,-99.99,,,0.00,Acu-Link.com,2013-05-20 14:12:00,
2013-05-20 09:27:00,68.2,59.2,29.62,SSW,202,3.7,-999.0,73,-99.99,,,0.00,Acu-Link.com,2013-05-20 14:27:00,
2013-05-20 09:42:00,67.1,59.3,29.61,South,180,2.7,-999.0,76,-99.99,,,0.00,Acu-Link.com,2013-05-20 14:42:00,
2013-05-20 09:58:00,68.5,58.7,29.61,SW,225,3.2,-999.0,71,-99.99,,,0.00,Acu-Link.com,2013-05-20 14:58:00,
2013-05-20 10:13:00,69.6,59.4,29.62,East,90,2.2,-999.0,70,-99.99,,,0.00,Acu-Link.com,2013-05-20 15:13:00,
2013-05-20 10:28:00,70.5,60.6,29.61,NNE,22,2.7,-999.0,71,-99.99,,,0.00,Acu-Link.com,2013-05-20 15:28:00,
2013-05-20 10:43:00,70.7,59.6,29.62,South,180,2.7,-999.0,68,-99.99,,,0.00,Acu-Link.com,2013-05-20 15:43:00,
2013-05-20 10:58:00,71.2,58.8,29.62,West,270,6.3,-999.0,65,-99.99,,,0.00,Acu-Link.com,2013-05-20 15:58:00,
2013-05-20 11:14:00,72.3,59.4,29.63,SSW,202,6.8,-999.0,64,-99.99,,,0.00,Acu-Link.com,2013-05-20 16:14:00,
2013-05-20 11:29:00,72.0,59.6,29.62,SSE,157,4.7,-999.0,65,-99.99,,,0.00,Acu-Link.com,2013-05-20 16:29:00,
2013-05-20 11:44:00,73.0,58.7,29.62,SW,225,4.7,-999.0,61,-99.99,,,0.00,Acu-Link.com,2013-05-20 16:44:00,
2013-05-20 11:59:00,71.8,59.8,29.63,SE,135,2.7,-999.0,66,-99.99,,,0.00,Acu-Link.com,2013-05-20 16:59:00,
2013-05-20 12:14:00,72.9,59.6,29.63,South,180,6.3,-999.0,63,-99.99,,,0.00,Acu-Link.com,2013-05-20 17:14:00,
2013-05-20 12:30:00,73.9,60.0,29.63,SSW,202,7.3,-999.0,62,-99.99,,,0.00,Acu-Link.com,2013-05-20 17:30:00,
2013-05-20 12:45:00,74.3,59.5,29.62,WSW,247,3.7,-999.0,60,-99.99,,,0.00,Acu-Link.com,2013-05-20 17:45:00,
2013-05-20 13:00:00,75.2,61.7,29.62,SSW,202,6.8,-999.0,63,-99.99,,,0.00,Acu-Link.com,2013-05-20 18:00:00,
2013-05-20 13:15:00,74.3,57.6,29.61,WNW,292,5.8,-999.0,56,-99.99,,,0.00,Acu-Link.com,2013-05-20 18:15:00,
2013-05-20 13:30:00,75.6,60.7,29.61,SSW,202,6.3,-999.0,60,-99.99,,,0.00,Acu-Link.com,2013-05-20 18:30:00,
2013-05-20 13:46:00,71.8,59.4,29.62,SSW,202,6.3,-999.0,65,-99.99,,,0.00,Acu-Link.com,2013-05-20 18:46:00,
2013-05-20 14:01:00,72.7,58.9,29.61,South,180,10.9,-999.0,62,-99.99,,,0.00,Acu-Link.com,2013-05-20 19:01:00,
2013-05-20 14:16:00,73.9,60.5,29.61,SSW,202,7.8,-999.0,63,-99.99,,,0.00,Acu-Link.com,2013-05-20 19:16:00,
2013-05-20 14:31:00,73.4,59.6,29.60,SSW,202,9.9,-999.0,62,-99.99,,,0.00,Acu-Link.com,2013-05-20 19:31:00,
2013-05-20 14:47:00,73.9,59.6,29.60,SSW,202,6.3,-999.0,61,-99.99,,,0.00,Acu-Link.com,2013-05-20 19:47:00,
2013-05-20 15:02:00,72.5,59.6,29.60,SSW,202,10.9,-999.0,64,-99.99,,,0.00,Acu-Link.com,2013-05-20 20:02:00,
2013-05-20 15:17:00,71.6,59.6,29.60,SE,135,5.8,-999.0,66,-99.99,,,0.00,Acu-Link.com,2013-05-20 20:17:00,
2013-05-20 15:32:00,71.2,60.5,29.60,South,180,9.4,-999.0,69,-99.99,,,0.00,Acu-Link.com,2013-05-20 20:32:00,
2013-05-20 15:47:00,70.9,61.0,29.59,South,180,7.3,-999.0,71,-99.99,,,0.00,Acu-Link.com,2013-05-20 20:47:00,
2013-05-20 16:03:00,70.9,61.0,29.59,South,180,6.8,-999.0,71,-99.99,,,0.00,Acu-Link.com,2013-05-20 21:03:00,
2013-05-20 16:18:00,69.8,59.6,29.58,SW,225,8.9,-999.0,70,-99.99,,,0.00,Acu-Link.com,2013-05-20 21:18:00,
2013-05-20 16:33:00,70.7,59.6,29.56,South,180,4.2,-999.0,68,-99.99,,,0.00,Acu-Link.com,2013-05-20 21:33:00,
2013-05-20 16:48:00,72.3,61.1,29.55,SSW,202,5.8,-999.0,68,-99.99,,,0.00,Acu-Link.com,2013-05-20 21:48:00,
2013-05-20 17:03:00,73.8,60.8,29.55,South,180,5.3,-999.0,64,-99.99,,,0.00,Acu-Link.com,2013-05-20 22:03:00,
2013-05-20 17:19:00,74.5,61.1,29.54,WSW,247,3.2,-999.0,63,-99.99,,,0.00,Acu-Link.com,2013-05-20 22:19:00,
2013-05-20 17:34:00,73.4,60.5,29.53,SSE,157,3.7,-999.0,64,-99.99,,,0.00,Acu-Link.com,2013-05-20 22:34:00,
2013-05-20 17:49:00,74.3,61.3,29.53,South,180,3.7,-999.0,64,-99.99,,,0.00,Acu-Link.com,2013-05-20 22:49:00,
2013-05-20 18:04:00,75.0,61.1,29.52,SW,225,6.3,-999.0,62,-99.99,,,0.00,Acu-Link.com,2013-05-20 23:04:00,
2013-05-20 18:20:00,74.5,61.1,29.52,South,180,5.8,-999.0,63,-99.99,,,0.00,Acu-Link.com,2013-05-20 23:20:00,
2013-05-20 18:35:00,74.5,61.1,29.52,SSW,202,6.3,-999.0,63,-99.99,,,0.00,Acu-Link.com,2013-05-20 23:35:00,
2013-05-20 18:50:00,75.0,60.6,29.52,SSE,157,4.7,-999.0,61,-99.99,,,0.00,Acu-Link.com,2013-05-20 23:50:00,
2013-05-20 19:05:00,74.1,60.7,29.52,SSE,157,4.2,-999.0,63,-99.99,,,0.00,Acu-Link.com,2013-05-21 00:05:00,
2013-05-20 19:20:00,72.5,60.9,29.52,SSW,202,3.2,-999.0,67,-99.99,,,0.00,Acu-Link.com,2013-05-21 00:20:00,
2013-05-20 19:36:00,71.6,60.9,29.52,South,180,6.3,-999.0,69,-99.99,,,0.00,Acu-Link.com,2013-05-21 00:36:00,
2013-05-20 19:51:00,70.5,60.6,29.52,SSW,202,4.2,-999.0,71,-99.99,,,0.00,Acu-Link.com,2013-05-21 00:51:00,
2013-05-20 20:06:00,69.3,61.0,29.52,SSE,157,5.8,-999.0,75,-99.99,,,0.00,Acu-Link.com,2013-05-21 01:06:00,
2013-05-20 20:21:00,68.7,60.8,29.52,South,180,4.2,-999.0,76,-99.99,,,0.00,Acu-Link.com,2013-05-21 01:21:00,
2013-05-20 20:36:00,67.8,61.0,29.52,SSW,202,6.8,-999.0,79,-99.99,,,0.00,Acu-Link.com,2013-05-21 01:36:00,
2013-05-20 20:52:00,67.3,61.3,29.52,South,180,5.3,-999.0,81,-99.99,,,0.00,Acu-Link.com,2013-05-21 01:52:00,
2013-05-20 21:07:00,66.6,61.3,29.52,South,180,6.8,-999.0,83,-99.99,,,0.00,Acu-Link.com,2013-05-21 02:07:00,
2013-05-20 21:22:00,66.0,61.0,29.52,SSW,202,4.7,-999.0,84,-99.99,,,0.00,Acu-Link.com,2013-05-21 02:22:00,
2013-05-20 21:38:00,65.7,61.1,29.52,South,180,3.7,-999.0,85,-99.99,,,0.00,Acu-Link.com,2013-05-21 02:38:00,
2013-05-20 21:53:00,65.3,61.0,29.53,SSW,202,2.7,-999.0,86,-99.99,,,0.00,Acu-Link.com,2013-05-21 02:53:00,
2013-05-20 22:08:00,65.1,60.8,29.55,WSW,247,2.7,-999.0,86,-99.99,,,0.00,Acu-Link.com,2013-05-21 03:08:00,
2013-05-20 22:23:00,65.5,56.6,29.55,WSW,247,3.2,-999.0,73,-99.99,,,0.00,Acu-Link.com,2013-05-21 03:23:00,
2013-05-20 22:38:00,64.9,52.0,29.55,WSW,247,3.7,-999.0,63,-99.99,,,0.00,Acu-Link.com,2013-05-21 03:38:00,
2013-05-20 22:54:00,64.6,52.1,29.56,WSW,247,3.2,-999.0,64,-99.99,,,0.00,Acu-Link.com,2013-05-21 03:54:00,
2013-05-20 23:09:00,63.7,50.9,29.56,SW,225,2.7,-999.0,63,-99.99,,,0.00,Acu-Link.com,2013-05-21 04:09:00,
2013-05-20 23:24:00,63.3,50.5,29.57,SSW,202,4.2,-999.0,63,-99.99,,,0.00,Acu-Link.com,2013-05-21 04:24:00,
2013-05-20 23:39:00,62.6,50.7,29.58,SW,225,4.7,-999.0,65,-99.99,,,0.00,Acu-Link.com,2013-05-21 04:39:00,
2013-05-20 23:55:00,61.7,51.0,29.58,NNW,337,3.7,-999.0,68,-99.99,,,0.00,Acu-Link.com,2013-05-21 04:55:00,